Location: Grange Rosano
(44.4500°N, 6.9667°E)
Time: 19:44:18
(UTC+00:00)

Cosmos 2297 - Pass Details

Date: 26 May 2022
Orbit: 834 x 859 km, 71.0° (Epoch: 01 July)

Event Time Altitude Azimuth Distance (km) Brightness Sun altitude
Rises 01:26:12 0° 335° (NNW) 3,445 7.4 -19.2°
Reaches altitude 10° 01:28:41 10° 337° (NNW) 2,505 6.7 -19.0°
Maximum altitude 01:34:27 75° 63° (ENE) 891 3.9 -18.5°
Drops below altitude 10° 01:40:10 10° 149° (SSE) 2,484 5.9 -17.9°
Enters shadow 01:41:45 - 151° (SSE) 3,084 6.4 -17.8°
